Regional Weather Roundup
Issued by NWS Wilmington, NC

Home | Current Version | Previous Version | Text Only | Print | Product List | Glossary On
Versions: 1 2 3 4 5 6 7 8 9 10 11 12 13 14 15 16 17 18 19 20 21 22 23 24 25 26 27 28 29 30 31 32 33 34 35 36 37 38 39 40 41 42 43 44 45 46 47 48 49 50
000
ASUS42 KILM 192113
RWRILM
RWRILM
REGIONAL HOURLY WEATHER ROUNDUP
NATIONAL WEATHER SERVICE WILMINGTON NC
500 PM EDT SAT AUG 19 2017

NOTE: "FAIR" INDICATES FEW OR NO CLOUDS BELOW 12,000 FEET WITH NO
SIGNIFICANT WEATHER AND/OR OBSTRUCTIONS TO VISIBILITY.

...............WFO WILMINGTON COUNTY WARNING AREA...............

......COASTAL NC AND SC COUNTIES......

CITY           SKY/WX    TMP DP  RH WIND       PRES   REMARKS
WILMINGTON     TSTM      75  74  96 SW3       29.96S FOG
N MYRTLE BEACH CLOUDY    75  72  90 CALM      29.93F
MYRTLE BEACH   PTSUNNY   82  75  78 SW12      29.94

......INLAND NC AND SC COUNTIES.......

CITY           SKY/WX    TMP DP  RH WIND       PRES   REMARKS
LUMBERTON      CLOUDY    85  73  67 SE10      29.92R HX  91
ELIZABETHTOWN  NOT AVBL
WHITEVILLE     CLOUDY    78  76  94 CALM      29.95R
FLORENCE       MOSUNNY   93  68  43 VRB7      29.91R HX  97
DARLINGTON     SUNNY     92  71  50 NW3       29.91S HX  98
KINGSTREE      FAIR      91  64  40 S5        29.91R HX  93
HARTSVILLE     PTSUNNY   90  64  43 CALM      29.91S HX  91
BENNETTSVILLE  FAIR      97  63  32 SW3       29.90S HX  98
CONWAY         FAIR      86  75  70 S7        29.92R THUNDER HX  95
GEORGETOWN     PTSUNNY   88  82  84 SW6       29.93R HX 108
MARION         PTSUNNY   91  70  49 NW7       29.91R HX  97

....................REST OF NORTH CAROLINA......................

.........EASTERN NC.........

CITY           SKY/WX    TMP DP  RH WIND       PRES   REMARKS
CAPE HATTERAS  LGT RAIN  78  74  87 SW10G20   29.94R
JACKSONVILLE   LGT RAIN  75  74  96 SW6       29.96R
MOREHEAD CITY  LGT RAIN  77  76  96 N3        29.96R
KENANSVILLE    CLOUDY    77  73  88 S3        29.95R
NEW BERN       LGT RAIN  75  74  96 N5        29.97R FOG
ELIZABETH CITY HVY RAIN  83  78  85 E10       29.91R HX  93

.........CENTRAL NC.........

CITY           SKY/WX    TMP DP  RH WIND       PRES   REMARKS
RALEIGH DURHAM MOSUNNY   92  65  40 NW5       29.93S HX  94
ROCKY MOUNT    CLOUDY    90  68  48 CALM      29.93R HX  94
ROANOKE RAPIDS NOT AVBL
FAYETTEVILLE   MOSUNNY   92  71  50 E7        29.91F HX  98
HOFFMAN        SUNNY     93  65  38 N3        29.91S HX  95

.........WESTERN NC.........

CITY           SKY/WX    TMP DP  RH WIND       PRES   REMARKS
CHARLOTTE      MOSUNNY   90  67  46 CALM      29.96S HX  93
GREENSBORO     MOSUNNY   89  66  46 NW9       29.96R HX  91
HICKORY        NOT AVBL
BOONE          NOT AVBL
ASHEVILLE      NOT AVBL

.....................REST OF SOUTH CAROLINA.....................

.........EASTERN SC.........

CITY           SKY/WX    TMP DP  RH WIND       PRES   REMARKS
CHARLESTON     MOSUNNY   91  78  65 S10       29.90F HX 106
BEAUFORT MCAS  SUNNY     94  79  61 VRB6      29.91F HX 111
HILTON HEAD    NOT AVBL

.........CENTRAL SC.........

CITY           SKY/WX    TMP DP  RH WIND       PRES   REMARKS
COLUMBIA       MOSUNNY   96  65  35 W8        29.89F HX  98
ORANGEBURG     SUNNY     94  63  35 W8        29.92S HX  95
SUMTER SHAW    SUNNY     95  63  34 S8        29.88S HX  96

.........WESTERN SC.........

CITY           SKY/WX    TMP DP  RH WIND       PRES   REMARKS
GREENVILLE     NOT AVBL
ROCK HILL      SUNNY     89  69  51 VRB5      29.96S HX  93
ANDERSON       SUNNY     91  62  37 NW7       29.95F HX  91
CLEMSON        NOT AVBL
GREENWOOD      MOSUNNY   91  66  43 NW3       29.95F HX  93


...................COASTAL AND OFFSHORE REPORTS..................

................LOCAL PIERS AND NC RESERVE................


STATION/POSITION TIME  SKY/WX   TEMP    WIND        PRES    VSBY
                                AIR SEA DIR/SP/G
                 (UTC)          (F)     (DEG/KT/KT) (MB)    (MI)
JOHNY MRCER PIER 2048            81 84  280/  9/ 13 1013.6R
NC RESRV MASNBRO NOT AVBL
OCEAN CREST PIER NOT AVBL
SPRINGMAID  PIER 2048                               1012.7R


................COASTAL AND OFFSHORE BUOYS................


STATION/POSITION TIME  SKY/WX   TEMP    WIND        PRES    VSBY
                                AIR SEA DIR/SP/G
                 (UTC)          (F)     (DEG/KT/KT) (MB)    (MI)
DIMNDSHOAL 41025 2050            82 84  260/  8/ 12 1013.9R
WVE H/P(F/S)=  4/ 4 SWL H/P/D(F/S/D)=  3/210/ 4

CAPE LOOKOUT     2100            77     310/ 11/ 13 1014.6R
ONSLOW BAY 41036 NOT AVBL
ONSLOW BAY 41064 2008            83 84  230/ 14/ 17 1014.0R
ONSLOW BAY 41159 2013               84                N/A
WVE H/P(F/S)=  4/ 5

MASNBO INL 41110 2029               84                N/A
WVE H/P(F/S)=  3/ 5

WILM HARBR 41108 2100               85                N/A
WVE H/P(F/S)=  4/ 5

27SE WRITB 41037 2008            85 84  220/ 14/ 17 1013.7R
FRYING PAN 41013 2050            85 84  210/ 14/ 17 1013.7R
WVE H/P(F/S)=  3/ 5 SWL H/P/D(F/S/D)=  2/140/ 7

SUNST NRSH 41024 2008            84 85  220/ 12/ 17 1012.7R
CAPRS NRSH 41029 2008            83 86  220/ 14/ 19 1012.8F
EDISTO     41004 2100            84 85  210/ 14/ 17 1013.0


..........OFFSHORE BUOYS BEYOND 100 NM OFFSHORE...........
.....IN A TRIANGLE---HAT TO BERMUDA TO BAHAMAS TO HAT.....


STATION/POSITION TIME  SKY/WX   TEMP    WIND        PRES    VSBY
                                AIR SEA DIR/SP/G
                 (UTC)          (F)     (DEG/KT/KT) (MB)    (MI)
150E HAT   41001 2100               82  220/ 14/ 17 1014.8
W BERMUDA  41048 2100            83 83  240/  8/ 10 1018.1
ATLANTIC S 41049 2050            84 85  110/  6/ 10 1019.6F
WVE H/P(F/S)=  5/ 8 SWL H/P/D(F/S/D)=  5/130/ 8

E BAHAMAS  41046 2100            84 84   90/ 16/ 19 1015.7
NE BAHAMAS 41047 2050            85 85  140/ 10/ 12 1017.5S
WVE H/P(F/S)=  4/ 9 SWL H/P/D(F/S/D)=  3/110/ 9

120E CANVRL41010 2100            85 86  140/  6/  8 1015.2

END



USA.gov is the U.S. government's official web portal to all federal, state and local government web resources and services.